Flag for U.S.A. Weather past 2 weeks in Augusta, Georgia, U.S.A.

Now
68 °F

Scattered clouds.


Feels Like: 68 °F
Forecast: 64 / 78 °F
Wind: 6 mph from North

Location: Daniel Field

Current Time: Sep 22, 2014 at 7:11:38 PM

Latest Report: Sep 22, 2014 at 5:53 PM


Visibility: 10 mi

Pressure: 30.03 "Hg

Humidity: 84%

Dew point: 63 °F

Location of AugustaLocation

Historic Weather in Augusta — Graph

°F

Augusta temperature yesterday

Maximum temperature yesterday: 88 °F (at 3:53 PM)
Minimum temperature yesterday: 66 °F (at 6:53 AM)
Average temperature yesterday: 77 °F

Past Weeks' High & Low Weather Summary

 TemperatureHumidityPressure
High95 °F (Sep 12, 12:53 PM)97% (Sep 8, 6:53 AM)30.21 "Hg (Sep 8, 6:53 AM)
Low66 °F (Sep 21, 6:53 AM)40% (Sep 20, 4:53 PM)29.87 "Hg (Sep 17, 4:53 PM)
Average77 °F77%30.03 "Hg
* Reported Sep 7 5:53 PM — Sep 22 5:53 PM, Augusta, Weather by CustomWeather, © 2014

Note: Actual official high and low records may vary slightly from our data, if they occured in-between our weather recording intervals... More about our weather records

Advertising

Augusta weather history for previous 24 hours

 ConditionsComfort  
Time TempWeatherWind HumidityBarometerVisibility
5:53 PM
Sep 22
68 °FScattered clouds.6 mph84%30.03 "Hg10 mi
4:53 PM69 °FSunny.6 mph79%30.04 "Hg10 mi
3:53 PM70 °FLight rain. Partly sunny.7 mph76%30.03 "Hg10 mi
2:53 PM70 °FLight rain. Partly sunny.8 mph84%30.04 "Hg10 mi
1:53 PM72 °FOvercast.7 mph61%30.04 "Hg10 mi
12:53 PM73 °FPartly sunny.6 mph64%30.06 "Hg10 mi
11:53 AM70 °FLight rain. Partly sunny.9 mph79%30.02 "Hg10 mi
10:53 AM71 °FPartly sunny.7 mph81%30.02 "Hg10 mi
10:00 AM70 °FLight rain. Fog.9 mph90%30.05 "Hg3 mi
8:53 AM74 °FPartly sunny.8 mph71%30.01 "Hg10 mi
7:53 AM73 °FPassing clouds.No wind71%29.99 "Hg10 mi
6:53 AM73 °FClear.No wind71%29.95 "Hg10 mi
5:53 AM74 °FPassing clouds.3 mph67%29.95 "Hg10 mi
4:53 AM75 °FOvercast.3 mph64%29.93 "Hg10 mi
3:53 AM75 °FOvercast.7 mph64%29.93 "Hg10 mi
2:53 AM74 °FOvercast.5 mph67%29.93 "Hg10 mi
1:53 AM74 °FMostly cloudy.5 mph67%29.94 "Hg10 mi
12:53 AM75 °FPassing clouds.5 mph64%29.93 "Hg10 mi
11:53 PM
Sep 21
76 °FClear.3 mph62%29.94 "Hg10 mi
10:53 PM78 °FClear.5 mph58%29.95 "Hg10 mi
9:53 PM78 °FClear.3 mph58%29.94 "Hg10 mi
8:53 PM80 °FClear.No wind56%29.93 "Hg10 mi
7:53 PM82 °FSunny.3 mph53%29.91 "Hg10 mi
Weather by CustomWeather, © 2014

See weather overviewHow to use our weather pages